Theta_e
340 341 342 342 342 342 341 341 342 341 340 338 336 334 333 334 334 335 338 339 338 338 337 333 328 327 331 332 331 328 324 322 321 321 319 314 313 313 314 316 318 319 320 318 318 319 321 322 321 320 319 320 327 329 329 330 329 329 328 327 332 336
340 342 343 343 343 342 342 341 341 341 340 338 336 335 335 334 335 336 340 341 340 339 336 332 329 330 332 333 336 336 332 330 329 333 332 326 323 321 320 321 325 326 325 323 324 327 330 330 328 326 321 321 326 330 331 332 333 333 332 329 330 335
341 342 343 343 343 342 342 341 341 341 340 338 337 337 335 335 337 338 340 341 341 340 336 332 332 334 335 335 337 339 339 338 337 339 339 337 335 333 332 333 335 336 335 335 335 336 336 335 334 334 332 330 331 330 331 332 333 333 333 331 330 334
342 342 343 343 343 343 342 341 341 340 339 339 338 337 336 336 338 340 341 340 340 340 336 333 333 334 338 338 338 339 340 340 339 340 339 339 338 338 338 337 338 339 339 338 338 338 338 338 337 338 338 337 336 335 333 333 334 334 334 333 332 333
342 343 343 343 343 342 342 341 341 340 340 339 338 337 336 335 338 340 341 341 340 340 337 335 334 334 336 339 340 340 340 340 339 340 340 339 339 339 338 339 339 339 340 340 339 340 340 340 340 340 339 339 338 337 336 335 335 335 334 334 334 334
342 343 343 342 342 342 341 341 341 340 339 339 338 337 336 337 339 341 341 341 341 340 338 337 335 335 337 340 341 340 341 341 341 341 341 340 340 340 339 339 340 340 340 341 341 341 341 341 340 340 340 340 339 339 338 338 337 336 334 334 334 335
340 340 342 341 341 341 341 341 340 340 339 339 338 338 339 340 340 341 340 340 339 338 337 337 336 337 339 341 341 340 341 342 342 342 341 341 341 341 341 340 340 341 341 341 340 340 340 340 340 340 340 339 339 339 339 339 338 338 337 335 334 335
337 336 338 339 338 340 340 339 339 340 338 338 339 340 340 340 340 341 340 339 337 335 335 335 338 339 340 341 341 341 342 342 342 342 341 341 341 341 341 341 341 341 340 340 340 339 339 339 339 339 339 339 339 339 339 339 339 338 338 337 335 335
335 333 334 334 335 339 339 338 338 337 336 337 339 340 340 340 341 341 339 337 336 334 334 337 339 340 341 342 342 342 343 342 342 342 342 342 341 341 341 341 340 340 340 339 339 339 339 339 339 338 338 338 338 338 338 338 338 338 338 338 337 336
335 333 334 332 332 336 337 336 337 335 336 339 339 339 339 340 340 339 337 335 334 335 337 340 341 341 342 343 343 343 343 342 342 342 342 341 340 340 340 340 340 339 339 339 339 338 338 338 338 338 337 337 337 337 337 337 337 337 337 337 337 337
335 335 335 333 332 335 336 336 337 336 337 339 339 338 339 340 338 337 335 334 335 336 340 341 341 342 342 342 342 341 341 341 341 341 341 340 339 339 339 339 339 339 338 338 338 338 338 337 337 337 337 336 336 336 336 336 336 336 336 336 337 337
335 336 336 334 333 336 337 337 338 338 338 338 339 339 340 339 337 334 334 336 337 339 341 342 342 343 342 341 341 340 340 340 341 340 340 339 339 339 338 339 338 338 337 336 336 336 336 336 336 336 335 335 334 335 335 335 335 335 336 336 336 337
336 337 335 334 336 337 337 338 338 339 339 338 339 339 339 337 335 335 336 338 340 341 342 342 342 342 341 340 339 340 340 340 340 340 340 339 338 338 337 337 337 336 335 333 333 333 333 333 334 334 333 332 332 332 333 333 334 334 334 334 335 336
337 336 335 335 337 338 338 338 338 339 339 338 338 337 337 336 334 336 339 340 340 342 342 342 342 340 339 340 339 340 340 340 340 339 338 337 337 337 337 335 334 333 332 332 332 332 332 332 333 333 332 332 331 331 332 332 332 332 333 333 333 334
338 336 336 337 337 338 338 338 338 338 338 337 337 336 337 336 335 337 340 341 341 342 342 341 342 341 339 340 340 340 339 339 339 338 336 336 336 335 334 333 332 332 331 331 331 331 332 332 333 332 332 332 331 331 331 332 332 332 332 333 334 334
339 337 336 337 338 338 337 337 337 337 337 337 337 337 336 335 336 339 341 341 341 342 342 341 342 341 340 340 340 339 338 338 336 336 336 334 334 333 332 332 331 331 331 330 330 331 332 332 332 332 332 331 331 331 331 331 331 330 330 331 333 334
338 337 337 338 338 338 337 337 337 337 336 337 338 336 335 336 339 341 341 340 340 341 341 341 341 340 339 338 338 337 336 335 335 335 334 333 332 331 331 331 330 330 331 331 331 331 332 332 332 332 331 330 330 330 331 331 330 329 329 329 330 331
336 337 338 338 338 337 337 337 337 337 336 337 338 337 336 339 342 341 340 339 339 339 340 340 340 339 337 336 336 335 335 334 334 334 333 332 332 331 331 330 330 331 331 331 331 331 332 332 332 331 331 330 330 330 331 330 329 329 329 328 329 328
337 338 338 338 338 337 337 337 337 337 337 337 338 339 340 341 341 339 339 338 338 338 338 338 337 336 336 336 335 334 334 333 332 332 331 331 331 330 331 331 331 331 331 331 331 332 332 332 331 331 330 330 329 329 331 330 328 328 328 328 328 328
338 338 338 338 339 338 338 338 338 338 339 339 339 340 341 341 340 338 337 336 336 336 336 335 335 335 335 335 334 333 333 332 331 331 330 330 330 331 331 331 331 330 330 330 331 331 331 332 331 331 330 330 330 329 330 329 328 328 328 328 328 327
338 337 338 339 339 339 339 339 339 339 340 340 340 340 340 339 338 337 336 336 335 335 334 334 334 334 333 333 332 332 331 330 330 329 330 330 331 331 331 331 330 330 330 331 331 331 331 331 331 330 330 330 329 329 329 329 328 328 328 328 328 327
338 338 338 340 339 339 340 340 339 340 340 340 340 340 339 337 336 335 335 335 333 333 333 333 333 332 332 331 330 329 330 330 330 330 330 331 331 331 330 330 330 330 330 330 331 331 331 331 331 330 329 330 330 330 329 328 328 328 327 328 328 327
338 338 339 340 340 340 340 339 339 340 340 340 339 338 337 336 335 334 334 333 332 332 332 332 331 331 330 330 329 329 330 330 330 330 331 331 330 330 330 330 330 330 330 330 330 330 330 330 330 329 329 331 332 331 331 328 327 328 327 327 327 326
338 338 339 340 340 340 340 339 339 340 339 339 337 336 336 335 334 333 333 333 333 332 332 332 330 329 329 329 329 330 330 330 330 330 330 330 329 330 330 330 330 330 330 330 330 329 329 328 327 329 329 330 331 331 332 329 327 328 327 327 327 326
338 338 339 340 339 339 340 339 340 339 337 337 336 336 335 334 333 333 333 333 332 332 332 331 329 328 329 330 330 330 330 330 330 329 329 329 329 329 329 329 330 330 330 330 329 328 328 326 325 326 328 329 330 331 331 328 327 328 326 326 326 325
339 339 339 340 339 340 340 340 339 337 335 335 335 336 335 333 333 333 333 332 331 330 329 329 329 328 329 330 330 330 330 330 329 328 328 328 329 329 329 329 328 329 329 328 327 326 325 324 323 324 325 326 327 328 327 326 326 326 325 325 325 324
339 339 339 340 340 340 340 340 338 336 335 336 335 336 335 333 334 333 332 331 329 328 328 329 329 329 329 330 330 329 329 328 328 327 327 328 329 329 328 327 326 326 326 325 325 324 323 323 322 323 322 322 323 323 324 324 324 325 325 325 324 323
340 340 340 340 340 340 340 339 337 335 336 336 336 336 334 334 334 332 330 329 328 328 328 329 329 329 329 329 329 329 328 327 326 327 327 328 327 327 326 326 324 324 323 323 323 322 322 322 322 321 321 320 320 321 322 322 322 323 325 325 323 323
340 340 340 340 340 339 339 338 336 335 336 337 336 336 335 334 332 330 329 329 329 328 328 329 329 328 328 328 328 327 327 326 326 327 327 327 326 326 326 325 323 322 321 321 321 321 321 321 321 321 320 320 320 321 321 320 320 321 323 324 324 323
340 340 340 340 339 338 338 337 335 335 337 337 336 335 334 333 330 329 330 330 329 329 328 328 328 327 327 327 326 326 326 325 326 327 326 325 325 325 325 323 322 321 320 320 319 319 319 320 320 319 319 320 319 320 321 321 321 321 322 323 323 322
339 339 339 338 338 338 336 336 335 335 337 336 335 335 333 331 330 330 330 329 329 329 328 328 327 327 326 326 326 325 324 325 325 326 324 324 324 324 323 321 320 320 319 319 318 318 318 318 318 318 318 318 318 318 319 320 321 321 322 322 323 322
338 337 337 337 336 336 336 335 335 336 336 336 335 334 332 331 330 330 329 329 328 328 327 326 326 326 325 325 324 323 323 324 325 324 323 323 323 323 322 319 318 319 318 317 317 316 316 316 316 316 316 316 316 316 316 317 318 318 319 320 322 322
338 337 337 337 336 335 335 334 335 335 335 335 335 333 331 331 330 329 329 328 328 327 326 325 325 324 323 323 323 323 323 324 323 323 322 322 322 321 320 318 317 317 317 316 315 314 314 314 315 314 314 314 314 313 313 314 314 315 315 317 320 321
338 338 337 336 335 334 334 334 334 334 334 335 334 332 331 331 330 329 328 328 327 326 325 324 323 323 322 322 322 323 323 323 322 322 322 321 320 319 318 317 316 316 315 314 313 312 312 312 312 312 311 311 310 310 310 312 313 313 313 314 317 318
337 337 336 334 333 333 333 333 333 334 334 334 333 332 331 331 330 328 328 327 326 325 324 323 322 321 321 322 322 322 323 323 322 321 320 320 318 318 318 317 316 314 313 313 311 311 310 310 310 309 309 308 307 307 307 310 312 312 312 312 313 313
337 335 334 333 333 332 332 333 333 334 334 333 331 330 330 330 329 328 328 327 325 324 324 323 321 321 321 322 321 321 321 322 321 319 319 319 318 318 317 316 315 313 312 312 311 310 310 309 309 308 307 306 305 304 305 307 310 311 311 311 311 311
335 334 333 333 333 332 333 333 333 332 331 331 330 329 328 328 328 327 326 325 325 324 322 321 321 321 322 322 320 320 321 321 319 317 317 318 318 317 317 315 314 312 311 311 311 310 309 308 307 307 306 305 304 303 303 306 309 310 310 310 310 310
Wind_Speed
25 24 23 22 21 20 19 19 18 16 15 14 13 12 11 10 11 11 10 10 9 9 9 10 11 11 11 12 11 10 9 9 8 8 7 5 4 3 2 3 4 5 6 7 8 8 9 10 11 11 11 9 8 8 9 10 11 13 14 13 12 12
25 24 23 22 21 21 19 19 18 16 15 14 13 12 11 10 11 11 9 9 8 8 8 9 10 10 10 10 10 10 9 8 8 8 8 7 6 5 4 5 6 6 7 8 8 9 10 11 11 11 10 9 10 12 13 13 13 14 15 14 14 13
25 24 24 23 22 21 20 19 18 17 15 15 14 12 11 11 11 10 9 8 7 6 7 8 9 8 9 8 8 8 8 8 7 7 7 7 7 6 5 6 7 8 9 9 10 10 11 11 11 11 11 11 13 15 16 15 14 13 14 15 15 15
24 24 24 23 22 21 21 20 19 17 16 16 15 13 11 11 11 9 8 7 6 6 5 6 6 6 7 7 6 6 7 8 7 7 8 8 8 7 7 7 7 9 10 11 11 11 12 12 13 13 14 15 16 17 17 16 16 15 15 16 16 16
23 23 23 23 22 21 20 20 18 17 16 16 14 13 12 11 11 9 8 6 5 4 3 3 3 3 3 5 4 4 6 7 7 8 8 8 8 9 10 9 9 10 12 12 12 13 14 14 15 15 15 17 19 18 17 16 17 17 17 17 18 19
21 21 22 22 21 20 20 19 18 17 16 15 14 13 12 11 10 8 7 5 4 3 2 2 2 1 1 3 4 4 5 6 7 8 8 8 9 10 11 11 12 12 13 14 13 14 15 17 17 17 17 18 19 19 18 17 18 18 18 18 19 20
21 20 20 20 20 20 20 19 17 16 15 15 14 13 13 11 9 8 6 4 3 3 3 3 2 2 2 3 4 4 5 5 7 7 7 8 9 10 11 12 13 13 14 14 14 15 16 17 18 18 18 18 18 18 18 19 19 19 19 17 17 19
22 21 20 21 21 20 20 18 17 15 14 14 14 13 12 11 8 6 5 6 5 4 5 3 2 3 3 3 4 4 4 5 6 7 7 8 9 9 10 11 11 12 12 13 14 15 16 16 16 17 17 17 17 17 18 19 19 19 19 17 17 19
23 22 22 23 23 22 20 18 17 15 14 14 14 13 12 11 9 8 8 9 8 7 7 4 3 3 2 2 3 3 4 4 6 7 6 6 7 8 9 10 11 11 11 12 13 14 15 15 16 16 17 17 17 17 18 19 19 19 19 19 18 18
23 22 22 23 24 23 20 19 18 16 15 15 14 13 13 11 10 11 11 9 9 8 6 4 3 2 1 2 3 3 4 5 6 6 6 6 7 8 8 9 9 9 10 11 12 13 14 15 15 16 16 17 17 17 18 18 19 19 20 21 19 18
22 21 21 24 25 24 21 20 18 16 16 15 14 14 13 12 12 13 12 9 9 8 6 4 4 2 1 3 4 4 4 4 4 4 5 6 7 8 8 8 9 9 10 11 12 12 13 13 14 15 16 16 17 17 17 18 18 18 18 19 20 20
22 21 22 24 25 24 21 20 18 17 16 14 13 14 14 14 13 11 10 10 9 8 6 4 3 2 2 3 4 4 4 3 3 3 4 5 7 8 8 8 8 8 10 11 12 12 12 12 13 14 15 17 18 17 18 18 18 19 19 19 19 20
22 21 23 25 25 24 22 20 19 18 17 15 15 16 16 16 13 10 10 10 8 8 7 4 2 1 3 3 4 4 3 3 3 4 5 6 6 7 7 7 8 9 11 12 12 12 12 12 12 13 15 17 17 17 17 18 19 20 20 20 19 19
23 23 24 25 24 23 23 21 19 19 19 18 18 18 16 14 11 10 10 9 9 8 7 5 3 2 2 3 4 5 4 3 4 6 6 6 6 6 8 9 10 11 12 13 13 13 13 13 13 13 15 17 17 16 16 17 18 19 19 19 19 18
24 26 26 24 22 21 22 21 20 20 21 21 18 16 14 12 11 11 11 10 10 9 7 6 4 2 3 3 4 5 5 5 6 6 7 7 7 8 9 10 11 12 13 13 13 13 13 13 13 15 16 17 17 16 16 17 17 17 18 17 16 17
25 28 27 24 21 20 21 21 20 19 18 17 15 14 13 13 13 12 11 11 10 9 7 6 6 5 5 5 5 7 7 6 6 6 7 7 8 10 10 11 11 13 14 14 14 14 14 14 15 16 16 18 17 16 16 16 17 18 18 16 15 16
27 27 26 24 22 21 20 19 18 17 16 15 14 14 13 14 14 12 11 11 10 8 6 6 6 7 8 8 8 8 8 7 6 6 7 7 9 10 11 12 12 14 15 15 15 16 16 16 17 16 17 18 16 16 15 15 19 19 18 17 16 16
26 26 25 24 22 21 20 19 18 17 17 16 15 14 14 14 13 11 11 11 9 6 5 7 8 9 9 9 8 7 7 7 6 7 8 8 9 10 12 13 14 14 14 15 16 18 18 17 17 17 19 18 16 15 13 15 20 18 17 18 19 19
26 26 25 23 22 22 21 20 19 18 17 16 15 15 14 14 12 11 10 8 7 6 8 9 10 9 8 7 7 6 6 7 7 8 8 8 10 12 13 14 15 15 15 16 17 18 18 18 18 18 19 17 15 14 11 14 19 16 18 20 20 21
27 28 27 25 24 24 23 22 21 19 18 17 16 15 14 12 11 10 8 8 9 10 11 11 10 8 7 6 6 6 7 8 8 8 9 10 12 13 14 15 16 17 17 17 17 19 19 18 19 19 20 17 14 13 9 13 18 15 18 19 20 23
31 30 29 28 27 27 26 24 22 20 19 17 16 15 13 11 9 10 11 12 13 13 13 11 9 8 7 7 7 7 8 9 9 9 10 11 12 13 15 15 15 16 17 19 19 21 21 18 20 19 18 16 13 13 9 13 20 16 17 19 19 23
32 30 29 28 28 28 27 25 22 20 19 18 16 15 13 12 13 14 15 15 15 14 13 11 9 8 8 8 8 8 9 9 9 10 10 11 12 13 15 15 16 16 16 17 17 20 21 17 18 16 12 10 9 11 8 12 22 17 16 19 18 22
32 30 29 28 27 27 26 24 21 19 19 18 16 14 14 16 17 17 17 16 14 12 11 10 9 8 8 9 9 9 10 10 9 9 10 11 13 14 15 14 15 16 15 16 15 18 20 18 18 16 9 4 3 7 5 10 23 18 15 18 17 22
31 29 29 27 26 26 23 21 19 18 18 16 15 16 17 18 18 18 16 14 11 9 8 9 9 9 9 10 10 10 9 9 9 9 10 12 14 15 15 15 14 14 14 15 15 16 18 19 21 16 8 3 2 4 2 7 18 15 14 18 16 22
30 28 28 27 26 25 23 21 20 19 17 16 18 20 20 19 17 17 14 11 9 6 7 8 9 10 11 10 10 9 8 8 9 10 11 12 14 15 15 15 14 14 14 14 14 15 16 18 20 19 11 4 3 3 3 8 11 9 15 17 15 22
28 28 27 26 25 25 24 24 24 23 21 21 21 20 20 20 17 15 12 10 9 7 7 8 9 10 10 10 9 8 7 7 9 11 11 12 13 14 15 15 14 14 15 13 12 15 16 16 18 20 18 12 8 5 5 9 6 4 12 13 12 21
27 27 27 26 25 24 24 25 26 25 25 26 23 19 19 19 16 14 12 11 11 10 10 11 11 11 9 9 8 7 7 8 10 11 11 12 14 14 15 15 14 14 14 13 13 16 17 17 17 19 19 17 14 12 10 10 6 4 7 7 12 20
27 27 27 26 24 24 25 26 26 25 25 25 24 21 19 18 16 14 13 14 14 14 12 12 12 10 8 7 7 7 7 8 10 11 12 14 15 15 15 14 14 14 15 15 17 18 18 18 18 17 18 18 16 15 13 13 12 8 4 4 10 15
26 26 26 25 24 25 26 27 26 26 25 23 23 23 20 18 16 15 16 17 16 15 13 12 11 8 7 6 6 7 7 9 11 12 13 15 15 15 15 14 15 15 17 18 19 18 19 19 18 17 16 16 15 14 13 14 16 14 7 4 6 7
25 25 25 25 25 25 26 26 26 27 26 24 24 24 21 18 18 17 18 18 17 16 14 12 10 8 7 7 7 7 8 10 13 14 15 15 15 15 14 14 14 16 17 19 20 20 20 20 19 18 17 15 15 14 11 10 14 15 9 5 5 5
23 24 24 24 24 24 25 25 26 27 27 26 26 24 22 20 20 19 19 19 19 17 14 13 10 9 8 7 6 7 9 12 13 14 15 14 13 13 14 14 15 15 17 19 20 20 20 19 19 19 19 18 17 16 13 10 12 14 10 6 6 5
22 23 23 23 23 24 24 25 26 26 27 28 26 24 23 22 21 21 21 21 19 17 15 13 10 9 8 6 5 8 12 13 13 13 12 12 12 12 13 15 16 16 18 20 20 21 21 20 19 20 21 20 19 18 17 15 14 15 13 11 9 4
22 22 22 22 23 24 24 24 25 26 27 27 25 23 22 22 22 22 22 20 19 17 15 13 11 9 7 5 7 12 15 15 13 11 10 11 12 12 14 16 18 19 19 20 20 22 22 21 20 20 21 20 20 19 19 17 16 17 17 17 13 7
22 22 22 22 23 23 22 22 24 26 26 25 24 21 20 22 23 22 20 19 18 16 14 13 11 9 10 12 14 16 15 14 13 11 11 12 13 14 16 18 20 20 20 20 21 23 24 23 22 21 21 21 21 21 19 18 18 18 19 18 15 11
23 22 22 22 22 21 21 22 24 25 25 24 22 20 20 22 23 21 20 18 17 15 14 12 9 12 16 18 17 15 13 13 12 11 11 12 15 17 17 18 20 21 21 20 21 24 25 25 24 24 24 24 24 23 22 20 18 19 19 18 17 15
24 22 22 22 22 22 23 24 24 25 25 24 23 23 23 23 22 21 19 18 17 14 11 9 11 17 19 17 15 13 12 13 12 11 12 13 16 18 17 18 20 21 21 20 22 24 24 25 25 25 25 26 26 26 24 21 19 19 20 21 20 20
24 24 24 24 24 25 25 25 24 25 25 25 24 24 23 23 23 20 18 17 15 13 12 13 17 19 17 15 14 13 12 13 13 13 14 16 17 17 17 19 21 22 21 19 21 23 23 24 25 25 26 27 27 27 26 24 21 20 21 22 23 23
Wind_Direction
161 159 159 157 158 159 160 162 161 162 160 156 153 153 150 141 134 128 123 116 111 105 89 83 80 72 65 59 57 60 63 64 64 62 56 50 41 21 349 325 319 319 320 319 319 320 321 320 316 312 309 303 294 299 310 307 303 303 305 303 301 302
161 160 161 160 161 161 162 165 165 164 163 161 159 160 159 149 141 139 136 124 117 110 90 81 79 73 61 51 48 50 53 55 57 55 51 49 39 24 14 5 356 350 342 336 332 333 333 330 329 327 318 306 296 301 307 305 304 304 303 298 290 294
161 162 164 163 163 164 166 168 169 168 166 166 168 167 163 154 148 149 148 137 131 121 95 79 73 67 53 39 33 36 38 37 35 34 36 35 29 19 9 3 1 356 349 343 337 338 339 336 337 338 332 322 314 310 306 301 298 301 303 298 286 284
164 166 166 165 166 168 169 171 173 170 169 172 174 172 165 158 155 157 155 147 143 136 114 87 69 58 40 25 18 21 23 21 17 14 14 16 14 8 1 355 357 356 351 344 337 340 342 340 338 336 335 331 326 321 315 308 300 296 299 298 288 281
167 169 169 168 169 170 171 174 175 173 173 176 177 172 166 163 160 163 163 157 154 148 135 111 89 73 26 360 355 7 15 13 11 7 3 5 3 357 353 349 351 354 353 347 340 341 342 339 336 332 330 329 328 325 323 319 312 305 301 299 293 286
171 172 173 172 171 173 174 177 178 176 178 180 180 173 170 169 164 164 163 166 173 177 194 185 161 151 291 318 334 0 13 7 5 4 359 357 356 354 350 347 347 348 349 346 341 339 339 336 334 331 328 327 327 327 327 324 322 317 313 308 303 297
175 177 179 177 177 177 178 181 182 181 182 183 181 178 176 172 166 163 163 178 183 186 192 181 181 213 266 303 331 359 13 1 354 358 358 354 354 355 351 347 344 344 345 343 340 338 336 333 330 330 327 325 325 327 328 325 323 320 317 313 310 308
179 183 184 184 185 183 181 183 185 186 185 182 182 183 180 172 171 179 178 176 183 200 191 177 200 223 255 311 329 341 353 348 354 360 359 353 354 357 352 345 339 339 341 340 341 339 338 334 331 331 330 329 328 328 327 325 324 320 315 307 306 308
181 186 188 189 189 186 183 181 184 186 182 181 184 182 180 181 186 190 179 176 196 209 193 194 226 226 245 322 331 338 355 7 15 9 357 352 356 359 347 338 334 336 341 342 343 342 340 337 336 336 335 335 333 331 328 326 325 321 317 311 310 308
181 186 188 187 187 185 181 179 180 179 177 181 184 181 183 191 195 192 193 201 208 204 195 215 230 229 274 357 357 2 18 28 25 6 350 352 358 356 346 342 344 348 351 349 345 342 339 334 334 337 338 339 336 334 331 328 326 322 320 315 315 313
183 185 185 183 182 182 179 178 179 177 180 184 185 188 192 194 195 197 206 210 199 196 207 221 215 214 61 44 22 19 24 25 19 0 350 355 1 360 0 2 2 1 356 348 340 336 333 331 331 335 337 337 336 333 330 328 326 322 320 317 315 315
183 185 185 183 181 181 182 182 184 184 187 193 197 203 202 196 195 199 200 196 195 205 210 205 206 197 125 78 40 25 22 27 32 14 359 0 4 3 10 11 6 2 353 344 339 337 336 334 333 335 335 334 330 325 322 319 317 315 314 314 314 314
181 185 187 187 185 185 187 191 197 198 196 196 197 197 194 193 198 200 199 202 213 217 202 184 166 141 135 102 60 37 31 51 48 21 8 6 5 6 17 19 12 1 355 355 357 357 356 352 347 344 341 338 331 324 319 314 312 313 311 311 312 311
180 187 188 189 192 196 198 201 201 197 190 182 178 182 184 193 205 208 212 220 219 206 184 158 121 75 98 112 73 54 62 68 42 26 25 26 22 25 29 23 16 8 7 10 8 6 3 359 356 350 344 339 335 328 323 321 321 323 322 320 317 313
186 192 190 191 195 194 191 186 178 173 173 173 176 184 192 203 214 217 220 221 209 191 169 149 142 110 93 106 75 67 79 68 52 47 51 47 36 33 29 23 20 16 14 11 6 7 6 1 356 349 345 342 339 337 336 338 341 344 342 337 333 326
188 193 191 190 189 180 175 172 169 168 173 182 189 196 205 212 216 219 216 208 195 184 172 157 150 127 98 96 89 87 89 76 69 67 60 45 32 31 27 25 26 20 16 13 11 10 6 360 355 352 351 350 350 351 353 359 3 1 357 352 349 345
179 183 184 184 184 181 178 174 174 177 185 193 198 205 211 212 214 213 206 197 187 182 180 162 141 117 99 100 99 94 89 78 71 63 52 38 32 32 29 28 27 23 20 18 14 9 4 0 359 358 358 359 2 3 9 17 13 10 9 6 3 358
173 174 178 180 182 183 180 176 178 184 190 195 201 207 210 210 212 208 199 193 184 174 162 141 121 115 108 106 101 87 79 67 57 47 39 38 39 35 32 29 26 26 24 19 15 11 7 3 1 1 2 6 11 13 23 23 15 19 24 20 15 9
171 174 178 181 183 183 181 180 181 183 188 195 200 204 205 208 207 200 192 182 164 143 132 118 111 117 112 104 93 74 62 50 43 38 37 44 42 36 33 31 27 23 17 17 20 17 10 3 1 4 5 10 16 20 32 21 15 25 29 22 17 14
172 176 177 178 180 182 182 180 179 179 183 190 197 199 198 199 195 185 167 141 128 122 118 112 114 118 106 94 78 61 52 42 40 40 44 47 43 41 38 32 27 20 15 18 24 20 12 6 6 5 4 11 21 27 31 13 13 24 23 20 16 14
174 177 176 176 178 181 180 177 176 177 180 185 192 194 188 182 168 149 135 124 121 119 117 116 116 108 92 81 64 54 48 47 49 47 51 52 49 47 39 32 26 24 24 24 26 22 14 12 12 5 358 1 13 24 25 9 12 20 18 17 14 9
174 177 178 178 179 181 182 181 178 178 182 183 186 190 181 159 138 128 124 123 121 118 118 113 103 94 80 66 56 58 57 58 58 52 56 56 51 45 37 34 29 30 35 32 32 27 22 22 14 0 346 345 356 7 12 6 8 15 14 12 11 7
173 178 180 181 180 181 183 185 185 183 184 181 179 180 165 142 133 127 123 122 123 121 117 101 87 78 66 64 66 71 67 61 58 52 56 53 46 43 39 40 36 34 37 36 37 35 36 37 21 6 355 351 347 349 353 359 359 4 7 5 5 5
174 179 181 182 183 183 182 183 184 181 181 176 165 157 146 135 133 130 126 127 128 122 111 91 79 74 73 81 82 77 68 61 62 55 54 52 48 47 43 44 44 41 40 39 40 40 44 45 35 30 15 323 299 342 1 349 347 348 358 360 1 4
175 179 182 184 186 185 181 175 171 168 166 161 152 146 142 138 136 135 133 132 126 114 105 91 85 85 86 90 84 77 71 66 66 57 53 55 54 54 51 51 52 53 53 48 43 42 46 47 45 49 45 21 342 353 346 341 339 332 345 352 357 1
177 180 184 187 188 185 178 172 168 163 159 155 153 152 149 145 143 141 137 128 118 111 112 105 99 97 91 89 84 78 74 66 64 60 58 60 61 61 59 58 58 59 60 53 45 44 43 46 51 55 55 57 49 33 354 344 347 320 335 346 353 360
179 182 186 187 185 182 176 172 171 169 165 160 157 156 154 150 147 141 134 128 121 117 114 109 105 102 94 90 88 79 73 68 65 63 63 65 66 67 65 62 59 59 59 55 57 56 47 46 52 52 53 58 55 49 35 12 5 325 329 341 347 357
181 184 186 185 183 181 177 173 172 170 165 162 159 156 154 150 145 139 133 130 126 119 111 107 105 103 96 90 89 83 75 70 67 66 70 71 69 69 70 65 59 61 64 63 65 64 57 51 50 48 48 51 51 49 45 30 15 355 333 326 339 354
183 184 184 184 183 182 180 176 172 167 163 161 158 155 151 148 145 141 136 133 128 120 114 108 104 102 101 95 89 84 73 69 71 75 78 76 73 73 70 62 59 66 71 70 67 66 63 58 55 53 47 44 40 38 40 33 21 11 1 342 342 348
183 185 183 183 183 182 182 179 173 168 163 158 153 151 150 149 147 143 138 135 129 123 118 112 107 103 99 94 86 76 72 77 80 81 81 79 77 77 72 64 65 72 74 72 69 67 67 65 64 59 50 42 31 24 24 22 12 6 2 350 341 333
182 185 182 182 184 183 182 179 175 172 166 158 153 152 153 153 151 147 140 134 128 123 119 114 111 102 91 87 80 75 85 90 86 83 83 81 77 77 74 69 71 76 75 73 70 69 68 66 65 60 52 46 38 31 26 13 358 353 351 339 337 337
177 182 181 182 183 181 180 177 175 173 167 160 157 157 160 158 155 149 141 134 128 122 116 110 106 98 88 80 76 88 97 97 91 88 86 82 78 79 75 70 74 78 76 73 70 67 65 62 61 58 54 51 47 44 35 23 11 3 358 347 338 331
173 178 179 179 180 178 177 176 175 172 167 161 160 163 166 162 157 149 143 137 128 121 115 107 102 91 78 76 96 102 100 96 94 94 90 87 85 83 78 75 77 78 74 72 70 67 65 63 62 60 57 55 51 48 39 32 27 19 16 6 352 343
173 177 176 175 177 176 176 176 173 169 164 160 163 168 169 163 157 150 145 136 126 121 115 109 103 89 87 99 105 103 99 98 98 95 91 90 89 87 84 81 77 74 73 74 73 71 69 67 66 63 60 57 51 47 42 39 36 31 29 21 6 355
171 174 174 174 176 174 171 169 166 165 162 162 167 168 163 161 157 151 144 133 124 122 116 112 106 101 103 105 103 98 100 105 102 91 90 93 92 92 92 86 77 71 74 78 76 74 70 67 66 63 61 58 52 47 43 41 42 40 39 34 23 12
170 170 169 169 168 166 163 162 164 165 164 164 165 162 156 155 154 150 143 133 125 119 114 116 115 114 113 107 101 99 103 108 99 88 93 99 97 97 96 87 75 71 75 79 77 74 70 67 66 63 61 57 52 47 43 45 47 46 46 44 40 31
167 163 162 162 160 161 161 161 164 164 163 163 162 157 152 150 148 144 139 132 124 110 109 119 123 123 120 111 106 106 108 107 95 90 100 104 101 101 96 83 72 69 75 80 77 73 71 70 68 65 63 58 53 47 44 47 50 50 52 50 47 43